CZ-6A DEB

Satellite information

Favourite Embed

Satellite Type and Status

DEBRISIN ORBIT

Key statistics

Satellite CZ-6A DEB at a glance.

Uptime

440

Days in orbit

Revolutions

≈ 14.3

Per day

Orbit

LEO

Low Earth Orbit

Inclination

89.0

Latest

Satellite identification and parameters

Extended collection of information and parameters for CZ-6A DEB.

Object identification

Identified? True

Debris? True

Object name: CZ-6A DEB

International designator: 2024-140VR

Object number (NORAD): 61352

Object ID (CCSDS): 61352

Country: PEOPLES REPUBLIC OF CHINA (PRC)

Current information (Y/N): Y

RCS size: SMALL

Orbital parameters

Period: 100.906 minutes

Inclination: 88.9972 deg

SMA: 7179.661 km

Apoapsis: 819.079 km

Periapsis: 783.973 km

RAAN: 301.3238 deg

Eccentricy: 0.00244482

Argument of periapsis: 208.6565 deg

Mean anomaly: 151.3288 deg

Mean motion: 14.27075148 rev/day

Mean motion (dot): 0.00005006 rev/day2

B* drag term: 0.0020429986 1/REarth

Two-line elements (TLE)

Creation date: Oct. 20, 2025, 2:10 a.m.

Reference frame: TEME

Reference center: EARTH

Epoch: Oct. 19, 2025, 10:07 p.m. UTC

TLE line 0: 0 CZ-6A DEB

TLE line 1: 1 61352U 24140VR 25292.92194311 .00005006 00000-0 20430-2 0 9990

TLE line 2: 2 61352 88.9972 301.3238 0024448 208.6565 151.3288 14.27075148 58714

Live tracking on map

Real-time ground track for satellite CZ-6A DEB.

In-orbit conjunctions

A list of the most updated potential collisions computed for object CZ-6A DEB.

Target Orbit TCA Probability of collision Miss distance Type
COSMOS 923 LEO 2025-08-23 12:01:57 0.0001496605 613.0 (m) PAYLOAD
COSMOS 1066 LEO 2025-06-05 20:54:03 0.0008083211 384.0 (m) PAYLOAD
NOAA 16 DEB SSO 2025-05-11 12:20:08 0.0001195615 127.0 (m) DEBRIS
PEGASUS R/B LEO 2025-04-03 09:02:05 0.0001666255 676.0 (m) ROCKET BODY
DELTA 2 R/B LEO 2025-02-09 21:42:08 0.0001392648 724.0 (m) ROCKET BODY

Associated space launch

18 Low Earth Orbit communication satellites with Ku, Q and V band payloads for the G60 constellation operated by Shanghai Spacecom Satellite Technology (SSST) with funding backed by the Shanghai local government. Initial constellation will consist of 1296 satellites by 2027 with long term plans to expand it to 12000 satellites.

CZ-6A DEB was lifted into orbit during the mission ‘Long March 6A | G60 Polar Group 01’, on board a Long March 6A space rocket.

The launch took place on Aug. 6, 2024, 6:42 a.m. from Launch Complex 9A.

For more information about the launch, click the button.

Launch to space Long March 6A | G60 Polar Group 01
Long March 6A | G60 Polar Group 01

Agency: N/A

Status: Launch Successful

Launch date: Aug. 6, 2024, 6:42 a.m. UTC

Rocket: Long March 6A

Launch pad: Launch Complex 9A

Location: Taiyuan Satellite Launch Center, People's Republic of China

...

Latest news about this satellite

News about space launch
Brightness of first Chinese broadband constellation satellites alarms astronomers

The first satellites of a Chinese broadband constellation are significantly brighter than those of Western systems, posing a new challenge for astronomers.

News about space launch
Chinese rocket stage breaks up into cloud of more than 700 pieces of space debris

HELSINKI — A Chinese Long March 6A rocket’s upper stage has fragmented into a cloud of over 700 pieces of space debris, adding to concerns about long-term orbital safety. China […]

News about space launch
China's Thousand Sails Megaconstellation Kicks Off with Dangerous Debris Field

China's Thousand Sails Megaconstellation Kicks Off with Dangerous Debris Field


Newsletter sign-up

Weekly statistics, charts and insights to help you stay on top of the space industry.